Flag for Germany Weather past 2 weeks in Koblenz, Rhineland-Palatinate, Germany

Now
64 °F

Scattered clouds.


Feels Like: 64 °F
Forecast: 53 / 73 °F
Wind: 8 mph from North

Location: Buechel

Current Time: Sep 2, 2014 at 4:18:41 PM

Latest Report: Sep 2, 2014 at 3:20 PM


Visibility: N/A

Pressure: 30.18 "Hg

Humidity: 56%

Dew point: 48 °F

Location of KoblenzLocation

Historic Weather in Koblenz — Graph

°F

Koblenz temperature yesterday

Maximum temperature yesterday: 61 °F (at 3:20 PM)
Minimum temperature yesterday: 50 °F (at 3:20 AM)
Average temperature yesterday: 55 °F

Past Weeks' High & Low Weather Summary

 TemperatureHumidityPressure
High68 °F (Aug 29, 2:20 PM)100% (Aug 19, 8:46 AM)30.18 "Hg (Aug 19, 8:46 AM)
Low41 °F (Aug 24, 7:20 AM)51% (Aug 20, 3:20 PM)29.62 "Hg (Aug 26, 5:20 AM)
Average55 °F82%29.99 "Hg
* Reported Aug 18 2:20 PM — Sep 2 2:20 PM, Koblenz, Weather by CustomWeather, © 2014

Note: Actual official high and low records may vary slightly from our data, if they occured in-between our weather recording intervals... More about our weather records

Advertising

Koblenz weather history for previous 24 hours

 ConditionsComfort  
Time TempWeatherWind HumidityBarometerVisibility
2:20 PM
Sep 2
64 °FScattered clouds.8 mph52%30.18 "HgN/A
1:20 PM63 °FScattered clouds.7 mph56%30.18 "HgN/A
12:20 PM61 °FScattered clouds.7 mph68%30.18 "HgN/A
11:20 AM61 °FScattered clouds.6 mph68%30.18 "HgN/A
10:20 AM61 °FScattered clouds.6 mph68%30.18 "HgN/A
9:20 AM57 °FPassing clouds.3 mph82%30.18 "HgN/A
8:20 AM55 °FScattered clouds.3 mph82%30.18 "HgN/A
7:20 AM50 °FFog.5 mph94%30.18 "HgN/A
6:20 AM52 °FFog.3 mph88%30.15 "HgN/A
5:20 AM52 °FPassing clouds.3 mph88%30.15 "HgN/A
4:20 AM52 °FPassing clouds.5 mph88%30.15 "HgN/A
3:20 AM52 °FCool.5 mph88%30.15 "Hg5 mi
2:20 AM52 °FCool.5 mph94%30.15 "Hg5 mi
1:20 AM52 °FCool.3 mph94%30.15 "Hg5 mi
12:20 AM54 °FCool.3 mph88%30.15 "Hg4 mi
11:20 PM
Sep 1
54 °FCool.3 mph88%30.15 "Hg4 mi
10:20 PM54 °FCool.3 mph88%30.18 "Hg5 mi
9:20 PM55 °FCool.2 mph82%30.18 "Hg5 mi
8:20 PM57 °FCool.1 mph77%30.15 "HgN/A
7:20 PM57 °FCool.3 mph82%30.15 "HgN/A
6:20 PM59 °FCool.5 mph77%30.15 "HgN/A
5:20 PM59 °FCool.7 mph77%30.15 "HgN/A
5:04 PM61 °FBroken clouds.6 mph63%30.15 "HgN/A
4:20 PM61 °FBroken clouds.6 mph63%30.15 "HgN/A
Weather by CustomWeather, © 2014

See weather overviewHow to use our weather pages